Location: Unspecified
(40.7945°N, 111.1337°W)
Time: 23:07:27
(UTC-06:00)

Okean 3 - Pass Details

Date: 26 March 2019
Orbit: 576 x 602 km, 82.5° (Epoch: 19 April)

Event Time Altitude Azimuth Distance (km) Brightness Sun altitude
Exits shadow 04:26:59 - 130° (SE) 2,507 6.8 -31.2°
Reaches altitude 10° 04:29:31 10° 105° (ESE) 1,940 6.5 -30.8°
Maximum altitude 04:31:01 12° 84° (E) 1,833 6.6 -30.6°
Drops below altitude 10° 04:32:32 10° 63° (ENE) 1,946 7.0 -30.3°
Sets 04:36:09 0° 31° (NNE) 2,855 7.9 -29.8°
